Language: 


Des rapports , des résumés tant et plus, au choix de chacun....


Données Historiques de Météogheer
Journalier Rapport pour Février 27, 2018 Unitée:  Impériale    Métrique   Les deux
Suivant Jour »
Journalier Hebdomadaire Mensuel Annuel Sur mesure
  Max: Min: Moyenne:
Température: 37 °F 21.7 °F 26.4 °F
Point de rosée: 15.8 °F 8.6 °F 12.6 °F
Humidité: 80% 0% 59%
Vent: 17.4mph 0mph 7.5mph
Rafales: 23mph - -
Vent- - ENE
Pression: 30.3 in 0 in -
Pluie: 0 in    
Historical Graphs
 
 
Données tabulaires pour Février 27, 2018
Heure Température Point de rosée Pression Vent Vent Rafales Humidité Pluie Taux (Horaire) Conditions
00:02 23.9 °F 12.2 °F 30.2 in NNE 7.2 mph 7.4 mph 66% 0 in
00:07 23.9 °F 12.2 °F 30.2 in North 1.6 mph 7.4 mph 66% 0 in
00:12 23.9 °F 14 °F 30.2 in NNE 2.9 mph 7.2 mph 67% 0 in
00:17 23.7 °F 14 °F 30.2 in North 4.7 mph 6.3 mph 67% 0 in
00:22 23.5 °F 14 °F 30.2 in NNE 4.3 mph 6.3 mph 67% 0 in
00:27 23.5 °F 14 °F 30.2 in North 4.3 mph 6.3 mph 68% 0 in
00:32 23.5 °F 14 °F 30.3 in NNE 6 mph 6.9 mph 68% 0 in
00:37 23.5 °F 14 °F 30.3 in NE 6 mph 7.4 mph 69% 0 in
00:42 23.4 °F 14 °F 30.3 in North 6.3 mph 7.4 mph 69% 0 in
00:47 23.4 °F 14 °F 30.3 in NNE 4.9 mph 7.8 mph 70% 0 in
00:52 23.4 °F 14 °F 30.3 in NNE 4 mph 7.8 mph 71% 0 in
00:57 23.4 °F 14 °F 30.3 in NNE 6 mph 7.6 mph 72% 0 in
01:02 23.2 °F 14 °F 30.3 in NE 4.9 mph 6.5 mph 72% 0 in
01:07 23.2 °F 14 °F 30.3 in NNE 3.1 mph 6.5 mph 72% 0 in
01:12 22.8 °F 14 °F 30.3 in NNE 6.3 mph 6.5 mph 72% 0 in
01:17 22.8 °F 14 °F 30.3 in North 6.5 mph 6.9 mph 72% 0 in
01:22 22.8 °F 14 °F 30.3 in NNE 5.8 mph 8.9 mph 72% 0 in
01:27 22.8 °F 14 °F 30.3 in NE 4.3 mph 8.9 mph 73% 0 in
01:32 22.8 °F 14 °F 30.3 in North 4.9 mph 7.2 mph 74% 0 in
01:37 22.8 °F 14 °F 30.3 in NNE 5.6 mph 6.3 mph 74% 0 in
01:42 22.8 °F 14 °F 30.3 in NNE 6 mph 7.2 mph 74% 0 in
01:48 22.8 °F 15.8 °F 30.2 in NNE 6.5 mph 7.2 mph 75% 0 in
01:53 22.8 °F 15.8 °F 30.2 in NNE 5.6 mph 7.2 mph 75% 0 in
01:58 22.8 °F 15.8 °F 30.2 in NNE 6 mph 7.2 mph 75% 0 in
02:03 22.8 °F 15.8 °F 30.2 in NE 5.6 mph 6.5 mph 75% 0 in
02:08 22.8 °F 15.8 °F 30.2 in NNE 3.6 mph 7.4 mph 75% 0 in
02:13 22.8 °F 15.8 °F 30.2 in North 3.4 mph 7.4 mph 75% 0 in
02:18 22.6 °F 15.8 °F 30.2 in NNE 2.7 mph 5.4 mph 75% 0 in
02:23 22.6 °F 15.8 °F 30.2 in NE 3.4 mph 5.4 mph 75% 0 in
02:28 22.5 °F 14 °F 30.2 in NNE 4.3 mph 6.3 mph 75% 0 in
02:33 22.5 °F 14 °F 30.2 in NNE 3.6 mph 7.6 mph 75% 0 in
02:38 22.6 °F 15.8 °F 30.2 in North 4.7 mph 7.6 mph 76% 0 in
02:43 22.6 °F 15.8 °F 30.2 in NE 2.2 mph 7.4 mph 76% 0 in
02:48 22.6 °F 15.8 °F 30.2 in NNE 3.6 mph 7.2 mph 77% 0 in
02:53 22.6 °F 15.8 °F 30.2 in NNE 5.6 mph 6.3 mph 77% 0 in
02:58 22.6 °F 15.8 °F 30.2 in NE 3.6 mph 6.3 mph 77% 0 in
03:03 22.6 °F 15.8 °F 30.2 in NE 2.9 mph 5.8 mph 77% 0 in
03:08 22.5 °F 15.8 °F 30.2 in North 5.4 mph 6.3 mph 77% 0 in
03:13 22.5 °F 15.8 °F 30.2 in NE 4.5 mph 6.3 mph 77% 0 in
03:18 22.5 °F 15.8 °F 30.2 in North 6 mph 6.5 mph 77% 0 in
03:23 22.6 °F 15.8 °F 30.2 in NE 3.4 mph 6.5 mph 77% 0 in
03:28 22.6 °F 15.8 °F 30.2 in NE 3.8 mph 5.4 mph 77% 0 in
03:33 22.6 °F 15.8 °F 30.2 in NNE 2.9 mph 5.6 mph 77% 0 in
03:38 22.5 °F 15.8 °F 30.2 in NNE 3.8 mph 5.8 mph 77% 0 in
03:44 22.5 °F 15.8 °F 30.2 in North 4.3 mph 6.3 mph 77% 0 in
03:49 22.5 °F 15.8 °F 30.2 in North 3.6 mph 7.2 mph 77% 0 in
03:54 22.5 °F 15.8 °F 30.2 in North 3.1 mph 7.2 mph 77% 0 in
03:59 22.5 °F 15.8 °F 30.2 in ENE 3.6 mph 5.8 mph 77% 0 in
04:04 22.5 °F 15.8 °F 30.2 in NE 1.3 mph 5.8 mph 77% 0 in
04:09 22.5 °F 15.8 °F 30.2 in NE 6 mph 7.6 mph 77% 0 in
04:14 22.6 °F 15.8 °F 30.2 in NE 6.7 mph 7.6 mph 78% 0 in
04:19 22.6 °F 15.8 °F 30.2 in NE 4.3 mph 7.4 mph 79% 0 in
04:24 22.6 °F 15.8 °F 30.2 in East 5.6 mph 7.8 mph 79% 0 in
04:29 22.6 °F 15.8 °F 30.2 in NE 6 mph 7.8 mph 79% 0 in
04:34 22.5 °F 15.8 °F 30.2 in NNE 6.3 mph 7.4 mph 79% 0 in
04:39 22.5 °F 15.8 °F 30.2 in NE 6.3 mph 7.6 mph 79% 0 in
04:44 22.6 °F 15.8 °F 30.2 in NNE 6.5 mph 7.8 mph 80% 0 in
04:49 22.6 °F 15.8 °F 30.2 in NNE 7.2 mph 8.1 mph 80% 0 in
04:54 22.6 °F 15.8 °F 30.2 in NE 6.3 mph 8.1 mph 80% 0 in
04:59 22.8 °F 15.8 °F 30.2 in NNE 5.6 mph 7.8 mph 79% 0 in
05:04 22.8 °F 15.8 °F 30.2 in NNE 5.8 mph 7.6 mph 79% 0 in
05:09 22.6 °F 15.8 °F 30.2 in NNE 6 mph 7.8 mph 79% 0 in
05:14 22.6 °F 15.8 °F 30.2 in NE 7.4 mph 8.1 mph 79% 0 in
05:19 22.6 °F 15.8 °F 30.2 in NE 6.3 mph 8.1 mph 79% 0 in
05:24 22.6 °F 15.8 °F 30.2 in NNE 8.1 mph 8.5 mph 79% 0 in
05:30 22.6 °F 15.8 °F 30.2 in NE 6 mph 8.7 mph 79% 0 in
05:35 22.6 °F 15.8 °F 30.2 in NNE 6.5 mph 8.7 mph 79% 0 in
05:40 22.6 °F 15.8 °F 30.2 in NNE 7.4 mph 8.5 mph 79% 0 in
05:45 22.6 °F 15.8 °F 30.2 in NE 6.5 mph 8.5 mph 79% 0 in
05:50 22.6 °F 15.8 °F 30.2 in NE 7.6 mph 8.5 mph 79% 0 in
05:55 22.6 °F 15.8 °F 30.2 in NNE 7.2 mph 8.5 mph 79% 0 in
06:00 22.6 °F 15.8 °F 30.2 in NE 6.5 mph 8.5 mph 79% 0 in
06:05 22.6 °F 15.8 °F 30.2 in ENE 7.4 mph 8.5 mph 79% 0 in
06:10 22.6 °F 15.8 °F 30.2 in NNE 6.5 mph 8.5 mph 79% 0 in
06:15 22.6 °F 15.8 °F 30.2 in NE 4.9 mph 8.5 mph 79% 0 in
06:20 22.6 °F 15.8 °F 30.2 in NNE 5.4 mph 8.5 mph 79% 0 in
06:25 22.5 °F 15.8 °F 30.2 in NE 8.1 mph 8.1 mph 78% 0 in
06:30 22.5 °F 15.8 °F 30.2 in NE 6.5 mph 8.5 mph 78% 0 in
06:35 22.5 °F 15.8 °F 30.2 in NE 3.8 mph 8.5 mph 78% 0 in
06:40 22.5 °F 15.8 °F 30.2 in NE 8.1 mph 8.1 mph 78% 0 in
06:45 22.5 °F 15.8 °F 30.2 in NNE 7.4 mph 8.1 mph 78% 0 in
06:50 22.5 °F 15.8 °F 30.2 in NNE 6.5 mph 8.1 mph 78% 0 in
06:51 22.5 °F 15.8 °F 30.2 in NE 6 mph 8.1 mph 78% 0 in
06:56 22.5 °F 15.8 °F 30.2 in NE 6 mph 7.6 mph 78% 0 in
07:01 22.5 °F 15.8 °F 30.2 in ENE 4.7 mph 6.5 mph 78% 0 in
07:06 22.3 °F 15.8 °F 30.2 in NE 3.4 mph 6.5 mph 77% 0 in
07:12 22.1 °F 14 °F 30.2 in ENE 3.8 mph 6.3 mph 77% 0 in
07:17 21.9 °F 14 °F 30.2 in ENE 4.9 mph 6.9 mph 77% 0 in
07:22 21.9 °F 14 °F 30.2 in ENE 4.7 mph 6.9 mph 77% 0 in
07:27 21.7 °F 14 °F 30.2 in NE 3.8 mph 5.6 mph 77% 0 in
07:32 21.7 °F 14 °F 30.2 in NE 5.8 mph 6.5 mph 77% 0 in
07:37 21.7 °F 14 °F 30.2 in ENE 7.4 mph 7.4 mph 77% 0 in
07:42 21.9 °F 14 °F 30.2 in ENE 5.8 mph 7.8 mph 78% 0 in
07:47 21.9 °F 14 °F 30.2 in ENE 6.3 mph 7.8 mph 78% 0 in
07:52 22.1 °F 14 °F 30.2 in NE 6 mph 8.1 mph 78% 0 in
07:57 22.3 °F 15.8 °F 30.2 in ENE 4.3 mph 9.6 mph 78% 0 in
08:02 22.3 °F 15.8 °F 30.2 in ENE 5.4 mph 9.6 mph 78% 0 in
08:09 32 °F 15.8 °F 0 in NE 6.3 mph 7.4 mph 0% 0 in
08:14 23.2 °F 15.8 °F 30.2 in NE 6.5 mph 8.5 mph 76% 0 in
08:19 23.2 °F 15.8 °F 30.2 in NE 6.9 mph 8.5 mph 76% 0 in
08:24 23.4 °F 15.8 °F 30.2 in NE 7.4 mph 8.1 mph 76% 0 in
08:29 23.7 °F 15.8 °F 30.2 in NE 5.8 mph 8.7 mph 74% 0 in
08:34 23.9 °F 15.8 °F 30.2 in ENE 5.6 mph 8.7 mph 74% 0 in
08:39 23.9 °F 15.8 °F 30.2 in NE 6.3 mph 8.5 mph 74% 0 in
08:44 23.9 °F 15.8 °F 30.2 in NNE 6.3 mph 8.5 mph 74% 0 in
08:49 23.9 °F 15.8 °F 30.2 in NE 7.6 mph 11 mph 74% 0 in
08:54 23.9 °F 15.8 °F 30.2 in NE 6 mph 11 mph 74% 0 in
08:59 23.9 °F 15.8 °F 30.2 in ENE 6 mph 8.5 mph 74% 0 in
09:04 23.9 °F 15.8 °F 30.2 in ENE 9.6 mph 10.5 mph 74% 0 in
09:09 23.9 °F 15.8 °F 30.2 in ENE 7.8 mph 12.3 mph 74% 0 in
09:14 23.9 °F 15.8 °F 30.2 in ENE 11.2 mph 13.2 mph 74% 0 in
09:19 23.9 °F 15.8 °F 30.2 in NE 12.1 mph 13.2 mph 74% 0 in
09:25 23.9 °F 15.8 °F 30.2 in East 12.3 mph 12.5 mph 74% 0 in
09:30 23.9 °F 15.8 °F 30.2 in East 8.9 mph 12.5 mph 74% 0 in
09:35 23.9 °F 15.8 °F 30.2 in ENE 6.5 mph 12.5 mph 74% 0 in
09:40 23.9 °F 15.8 °F 30.2 in ENE 9.4 mph 13 mph 74% 0 in
09:45 23.9 °F 15.8 °F 30.2 in ENE 9.6 mph 13 mph 74% 0 in
09:50 23.9 °F 15.8 °F 30.2 in ENE 7.4 mph 11 mph 74% 0 in
09:55 27.1 °F 12.2 °F 30.2 in NE 10.3 mph 11 mph 53% 0 in
10:00 27.1 °F 12.2 °F 30.2 in ENE 9.6 mph 13.4 mph 53% 0 in
10:05 27.3 °F 10.4 °F 30.2 in East 8.1 mph 13.4 mph 51% 0 in
10:10 27.3 °F 10.4 °F 30.2 in ENE 12.3 mph 12.3 mph 51% 0 in
10:15 27.3 °F 10.4 °F 30.2 in ENE 12.3 mph 12.3 mph 51% 0 in
10:20 27.3 °F 10.4 °F 30.2 in ENE 12.3 mph 12.3 mph 51% 0 in
10:25 27.3 °F 10.4 °F 30.2 in ENE 12.3 mph 12.3 mph 51% 0 in
10:30 27.3 °F 10.4 °F 30.2 in ENE 12.3 mph 12.3 mph 51% 0 in
10:35 27.3 °F 10.4 °F 30.2 in ENE 12.5 mph 12.5 mph 51% 0 in
10:40 27.3 °F 10.4 °F 30.2 in NE 10.5 mph 12.5 mph 51% 0 in
10:46 37 °F 10.4 °F 30.2 in NE 12.3 mph 18.1 mph 32% 0 in
10:51 34 °F 10.4 °F 30.2 in ENE 10.1 mph 18.1 mph 36% 0 in
10:56 32.2 °F 10.4 °F 30.2 in ENE 10.3 mph 17.7 mph 39% 0 in
11:01 31.1 °F 8.6 °F 30.2 in East 11.2 mph 17.7 mph 41% 0 in
11:06 30.9 °F 8.6 °F 30.2 in East 16.6 mph 16.6 mph 41% 0 in
11:11 30.6 °F 8.6 °F 30.2 in NE 10.3 mph 16.6 mph 42% 0 in
11:16 30.4 °F 8.6 °F 30.2 in NE 11 mph 16.6 mph 42% 0 in
11:21 30.4 °F 8.6 °F 30.2 in NE 10.1 mph 15.4 mph 42% 0 in
11:26 30.6 °F 8.6 °F 30.2 in ENE 11 mph 17.4 mph 42% 0 in
11:31 30.6 °F 8.6 °F 30.2 in NE 14.5 mph 17.7 mph 42% 0 in
11:36 30.6 °F 8.6 °F 30.2 in ENE 9.6 mph 17.7 mph 42% 0 in
11:41 30.7 °F 8.6 °F 30.2 in NE 12.5 mph 17.7 mph 42% 0 in
11:46 30.7 °F 8.6 °F 30.2 in ENE 15.4 mph 22.4 mph 41% 0 in
11:51 30.7 °F 8.6 °F 30.2 in NNE 7.8 mph 22.4 mph 42% 0 in
11:56 30.9 °F 8.6 °F 30.2 in NE 8.7 mph 15.4 mph 41% 0 in
12:01 31.1 °F 8.6 °F 30.2 in East 10.1 mph 15.9 mph 41% 0 in
12:06 31.1 °F 8.6 °F 30.2 in NE 10.7 mph 15.9 mph 41% 0 in
12:11 31.6 °F 10.4 °F 30.2 in ENE 10.1 mph 15.2 mph 41% 0 in
12:16 32 °F 10.4 °F 30.1 in NE 10.7 mph 15.2 mph 41% 0 in
12:21 31.8 °F 10.4 °F 30.1 in ENE 16.6 mph 19 mph 41% 0 in
12:27 32 °F 10.4 °F 30.1 in NE 10.1 mph 19 mph 41% 0 in
12:32 32.2 °F 12.2 °F 30.2 in NE 8.5 mph 16.6 mph 41% 0 in
12:37 32.2 °F 12.2 °F 30.2 in NE 12.5 mph 17.4 mph 42% 0 in
12:42 32.2 °F 12.2 °F 30.2 in NE 15.9 mph 19.5 mph 41% 0 in
12:47 31.8 °F 10.4 °F 30.2 in NE 17.2 mph 19.5 mph 41% 0 in
12:52 32 °F 10.4 °F 30.2 in ENE 10.3 mph 17.2 mph 41% 0 in
12:57 31.3 °F 8.6 °F 30.2 in NE 10.5 mph 17.9 mph 41% 0 in
13:02 30.6 °F 8.6 °F 30.2 in NE 13.2 mph 20.6 mph 41% 0 in
13:07 31.1 °F 8.6 °F 30.2 in ENE 8.5 mph 20.6 mph 41% 0 in
13:12 32 °F 10.4 °F 30.2 in ENE 6 mph 16.3 mph 41% 0 in
13:17 32.2 °F 12.2 °F 30.2 in NE 17.4 mph 17.7 mph 41% 0 in
13:22 32.4 °F 12.2 °F 30.2 in ENE 17 mph 19.5 mph 41% 0 in
13:27 31.8 °F 10.4 °F 30.2 in ENE 11.2 mph 19.5 mph 41% 0 in
13:32 31.8 °F 10.4 °F 30.2 in ENE 12.8 mph 19.2 mph 41% 0 in
13:37 31.8 °F 10.4 °F 30.2 in NE 12.8 mph 17.7 mph 41% 0 in
13:42 31.6 °F 10.4 °F 30.2 in ENE 15.7 mph 19.9 mph 41% 0 in
13:47 31.5 °F 8.6 °F 30.2 in NE 14.5 mph 19.9 mph 41% 0 in
13:52 31.5 °F 8.6 °F 30.2 in NE 8.7 mph 15.9 mph 41% 0 in
13:57 31.1 °F 8.6 °F 30.2 in ENE 12.5 mph 19 mph 41% 0 in
14:02 31.3 °F 8.6 °F 30.1 in East 9.8 mph 19 mph 41% 0 in
14:07 31.1 °F 8.6 °F 30.1 in ENE 7.6 mph 14.8 mph 41% 0 in
14:12 31.1 °F 8.6 °F 30.1 in NE 11 mph 12.3 mph 41% 0 in
14:17 30.9 °F 8.6 °F 30.1 in NE 10.1 mph 13.4 mph 41% 0 in
14:22 31.1 °F 8.6 °F 30.1 in ENE 7.6 mph 13.4 mph 41% 0 in
14:27 31.3 °F 8.6 °F 30.1 in NE 8.1 mph 13.2 mph 41% 0 in
14:32 32 °F 10.4 °F 30.1 in NNE 15.4 mph 17.4 mph 41% 0 in
14:37 32.5 °F 12.2 °F 30.1 in NE 10.3 mph 17.4 mph 40% 0 in
14:42 32 °F 8.6 °F 30.1 in ENE 13.2 mph 15.7 mph 40% 0 in
14:47 31.5 °F 8.6 °F 30.1 in ENE 7.6 mph 15.7 mph 41% 0 in
14:52 31.1 °F 8.6 °F 30.1 in NE 8.7 mph 15.7 mph 40% 0 in
14:57 31.1 °F 8.6 °F 30.1 in NE 13 mph 15.4 mph 40% 0 in
15:02 31.3 °F 8.6 °F 30.1 in East 8.5 mph 17.7 mph 40% 0 in
15:07 32 °F 8.6 °F 30.1 in East 12.1 mph 17.7 mph 40% 0 in
15:12 32.5 °F 12.2 °F 30.1 in East 8.1 mph 15.2 mph 40% 0 in
15:17 32.5 °F 12.2 °F 30.1 in ENE 8.5 mph 15.2 mph 40% 0 in
15:22 32.4 °F 10.4 °F 30.1 in East 9.8 mph 12.5 mph 40% 0 in
15:27 32.9 °F 12.2 °F 30.1 in ENE 8.7 mph 12.5 mph 40% 0 in
15:32 33.8 °F 12.2 °F 30.1 in East 10.5 mph 10.5 mph 40% 0 in
15:37 34.3 °F 12.2 °F 30.1 in ENE 7.8 mph 13.2 mph 40% 0 in
15:42 34.3 °F 12.2 °F 30.1 in ENE 14.8 mph 18.1 mph 39% 0 in
15:47 34.3 °F 12.2 °F 30.1 in NE 10.5 mph 18.1 mph 39% 0 in
15:52 34.2 °F 12.2 °F 30.1 in ENE 10.1 mph 17.7 mph 38% 0 in
15:57 34 °F 10.4 °F 30.1 in NE 10.3 mph 17.4 mph 38% 0 in
16:02 34.2 °F 12.2 °F 30.1 in ENE 9.8 mph 14.5 mph 39% 0 in
16:07 34.5 °F 12.2 °F 30.1 in ENE 10.7 mph 14.5 mph 39% 0 in
16:12 34.3 °F 12.2 °F 30.1 in NE 14.8 mph 17.7 mph 38% 0 in
16:17 33.1 °F 10.4 °F 30.1 in ENE 13.2 mph 20.6 mph 37% 0 in
16:22 32.5 °F 10.4 °F 30.1 in NE 15.7 mph 20.6 mph 38% 0 in
16:27 32.4 °F 10.4 °F 30.1 in NE 14.5 mph 19.2 mph 38% 0 in
16:32 32 °F 8.6 °F 30.1 in NE 10.1 mph 16.3 mph 39% 0 in
16:37 32 °F 8.6 °F 30.1 in NE 10.3 mph 14.5 mph 40% 0 in
16:42 32.5 °F 12.2 °F 30.1 in ENE 9.6 mph 13.2 mph 40% 0 in
16:47 32.7 °F 12.2 °F 30.1 in NE 10.5 mph 14.1 mph 40% 0 in
16:52 32.4 °F 10.4 °F 30.1 in NE 11.4 mph 14.5 mph 40% 0 in
16:57 31.8 °F 8.6 °F 30.1 in ENE 10.5 mph 17.7 mph 40% 0 in
17:03 31.6 °F 8.6 °F 30.1 in ENE 10.3 mph 17.7 mph 40% 0 in
17:08 31.8 °F 8.6 °F 30.1 in ENE 11 mph 16.3 mph 40% 0 in
17:13 32.2 °F 10.4 °F 30.1 in NE 11 mph 15.4 mph 40% 0 in
17:18 32.5 °F 12.2 °F 30.1 in NE 10.5 mph 16.1 mph 40% 0 in
17:23 32.7 °F 12.2 °F 30.1 in ENE 12.1 mph 23 mph 40% 0 in
17:28 32.4 °F 10.4 °F 30.1 in ENE 17.2 mph 23 mph 40% 0 in
17:33 31.6 °F 10.4 °F 30.1 in NNE 10.7 mph 20.8 mph 41% 0 in
17:34 31.5 °F 8.6 °F 30.1 in North 10.3 mph 20.8 mph 41% 0 in
17:40 31.1 °F 8.6 °F 30.1 in ENE 12.8 mph 17.4 mph 41% 0 in
17:45 30.7 °F 8.6 °F 30.1 in NE 8.1 mph 16.3 mph 41% 0 in
17:50 30.4 °F 8.6 °F 30.1 in NE 7.8 mph 16.3 mph 41% 0 in
17:55 30.2 °F 8.6 °F 30.1 in NE 8.5 mph 13 mph 42% 0 in
18:00 30.2 °F 8.6 °F 30.1 in NNE 8.7 mph 11 mph 42% 0 in
18:05 29.8 °F 8.6 °F 30.1 in NE 8.7 mph 15.9 mph 42% 0 in
18:10 29.8 °F 8.6 °F 30.1 in NE 10.5 mph 15.9 mph 43% 0 in
18:15 29.7 °F 8.6 °F 30.1 in NE 11 mph 15.4 mph 43% 0 in
18:20 29.5 °F 8.6 °F 30.1 in NE 15.4 mph 17.7 mph 43% 0 in
18:25 29.3 °F 8.6 °F 30.1 in NE 12.3 mph 17.7 mph 44% 0 in
18:30 29.1 °F 8.6 °F 30.1 in NE 8.7 mph 15.2 mph 44% 0 in
18:35 28.9 °F 10.4 °F 30.1 in NE 9.6 mph 15.2 mph 45% 0 in
18:40 28.9 °F 10.4 °F 30.1 in NE 9.4 mph 13 mph 45% 0 in
18:45 28.8 °F 10.4 °F 30.1 in NE 8.7 mph 15.7 mph 45% 0 in
18:50 28.6 °F 10.4 °F 30.1 in NNE 8.1 mph 15.7 mph 46% 0 in
18:55 28.4 °F 10.4 °F 30.1 in NE 7.8 mph 11 mph 47% 0 in
19:00 28.4 °F 10.4 °F 30.1 in ENE 8.5 mph 10.7 mph 48% 0 in
19:05 28.2 °F 10.4 °F 30.1 in NE 8.7 mph 10.5 mph 48% 0 in
19:10 28.2 °F 10.4 °F 30.1 in NE 7.8 mph 12.1 mph 49% 0 in
19:15 28 °F 10.4 °F 30.1 in NE 8.1 mph 12.1 mph 49% 0 in
19:21 27.9 °F 10.4 °F 30.1 in NE 7.8 mph 11.4 mph 50% 0 in
19:26 27.9 °F 10.4 °F 30.1 in NE 8.1 mph 11.4 mph 50% 0 in
19:31 27.7 °F 10.4 °F 30.1 in NE 7.6 mph 10.1 mph 51% 0 in
19:36 27.5 °F 10.4 °F 30.1 in NE 6.5 mph 9.8 mph 51% 0 in
19:41 27.1 °F 10.4 °F 30.1 in NE 6.5 mph 9.8 mph 52% 0 in
19:46 27.1 °F 12.2 °F 30.1 in NE 7.4 mph 8.7 mph 53% 0 in
19:51 27.1 °F 12.2 °F 30.1 in NE 5.8 mph 9.8 mph 53% 0 in
19:56 27.1 °F 12.2 °F 30.1 in NE 8.1 mph 9.8 mph 54% 0 in
20:01 27 °F 12.2 °F 30.1 in NE 7.2 mph 8.7 mph 54% 0 in
20:06 27 °F 12.2 °F 30.1 in NE 6.5 mph 8.7 mph 54% 0 in
20:11 26.8 °F 12.2 °F 30.1 in NNE 4.9 mph 8.1 mph 55% 0 in
20:21 26.2 °F 12.2 °F 30.1 in NE 4.9 mph 6.5 mph 56% 0 in
20:26 26.2 °F 12.2 °F 30.1 in NE 4.9 mph 6.3 mph 56% 0 in
20:31 26.1 °F 12.2 °F 30.1 in NE 5.4 mph 6.3 mph 56% 0 in
20:36 25.9 °F 12.2 °F 30.1 in NE 5.4 mph 6.3 mph 57% 0 in
20:41 25.9 °F 12.2 °F 30.1 in NE 5.8 mph 6.3 mph 57% 0 in
20:46 25.7 °F 12.2 °F 30.1 in ENE 3.6 mph 6.3 mph 58% 0 in
20:51 25.5 °F 12.2 °F 30.1 in ENE 3.8 mph 5.8 mph 58% 0 in
20:56 25.3 °F 12.2 °F 30.1 in NE 3.6 mph 4.9 mph 58% 0 in
21:01 25 °F 12.2 °F 30.1 in ENE 3.8 mph 4 mph 58% 0 in
21:06 24.8 °F 12.2 °F 30.1 in ENE 3.8 mph 5.4 mph 59% 0 in
21:11 24.8 °F 12.2 °F 30.1 in Calm   5.4 mph 59% 0 in
21:16 24.6 °F 12.2 °F 30.1 in NNE 4 mph 4.9 mph 59% 0 in
21:21 24.4 °F 12.2 °F 30.1 in Calm   4.5 mph 59% 0 in
21:26 24.1 °F 10.4 °F 30.1 in NNE 4 mph 4.3 mph 59% 0 in
21:31 23.7 °F 10.4 °F 30.1 in Calm   4 mph 59% 0 in
21:36 23.5 °F 10.4 °F 30.1 in North 4.9 mph 4.9 mph 59% 0 in
21:41 23.4 °F 10.4 °F 30.1 in NNE 4.3 mph 6 mph 61% 0 in
21:46 23.4 °F 10.4 °F 30.1 in NNE 3.8 mph 6 mph 62% 0 in
21:51 23.4 °F 12.2 °F 30.1 in North 6 mph 6 mph 63% 0 in
21:57 23.2 °F 12.2 °F 30.1 in NNE 6.3 mph 6.5 mph 64% 0 in
22:02 23.2 °F 12.2 °F 30.1 in NNE 5.4 mph 6.5 mph 65% 0 in
22:07 23.2 °F 12.2 °F 30.1 in Calm   6.5 mph 65% 0 in
22:12 23 °F 12.2 °F 30.1 in Calm   6.3 mph 65% 0 in
22:17 23 °F 12.2 °F 30.1 in NE 3.1 mph 6.3 mph 65% 0 in
22:22 23 °F 12.2 °F 30.1 in NE 4.3 mph 6.3 mph 66% 0 in
22:27 23.2 °F 12.2 °F 30.1 in ENE 3.4 mph 6 mph 66% 0 in
22:32 23.4 °F 12.2 °F 30.1 in NE 3.8 mph 7.2 mph 66% 0 in
22:37 23.4 °F 12.2 °F 30.1 in ENE 3.6 mph 7.2 mph 66% 0 in
22:42 23.4 °F 12.2 °F 30.1 in NE 3.8 mph 4.9 mph 65% 0 in
22:47 23.2 °F 12.2 °F 30.1 in ENE 2 mph 4.3 mph 65% 0 in
22:52 22.8 °F 12.2 °F 30.1 in ENE 3.4 mph 3.8 mph 64% 0 in
22:57 22.8 °F 12.2 °F 30.1 in ENE 4.7 mph 4.7 mph 65% 0 in
23:03 22.8 °F 12.2 °F 30.1 in NE 4 mph 4.7 mph 65% 0 in
23:08 22.6 °F 12.2 °F 30.1 in Calm   4.5 mph 65% 0 in
23:13 22.6 °F 12.2 °F 30.1 in NE 2.5 mph 4.3 mph 65% 0 in
23:18 22.6 °F 12.2 °F 30.1 in ENE 3.8 mph 4.7 mph 65% 0 in
23:23 22.6 °F 12.2 °F 30.1 in NE 2.9 mph 4.7 mph 65% 0 in
23:28 22.5 °F 12.2 °F 30.1 in Calm   4 mph 65% 0 in
23:33 22.5 °F 12.2 °F 30.1 in ENE 4 mph 4.7 mph 65% 0 in
23:38 22.5 °F 12.2 °F 30.1 in ENE 4 mph 5.6 mph 66% 0 in
23:43 22.6 °F 12.2 °F 30.1 in NE 4 mph 5.6 mph 66% 0 in
23:48 22.6 °F 12.2 °F 30.1 in NE 3.6 mph 5.6 mph 66% 0 in
23:53 22.5 °F 12.2 °F 30.1 in NE 3.6 mph 4.9 mph 66% 0 in
23:58 22.5 °F 12.2 °F 30.1 in ENE 1.6 mph 4 mph 65% 0 in
Données Historique de Météo Turbie

Mise a jour : 18/06/2018 00:15:12
Généré par Cumulus 1.9.4 (1099)